Tracking 22836 objects as of 18-Apr-2021
HD Live streaming from Space Station
objects crossing your sky now

DELTA 1 DEB

Track DELTA 1 DEB now!
10-day predictions


NORAD ID: 9978
Int'l Code: 1973-086GH
Perigee: 1,501.1 km
Apogee: 1,586.0 km
Inclination: 101.8 °
Period: 116.8 minutes
Semi major axis: 7914 km
RCS: 0.0391 m2 (small)
Launch date: November 6, 1973
Source: United States (US)
Launch site: AIR FORCE WESTERN TEST RANGE (AFWTR)

Note: This is SATELLITE DEBRIS
aabbcc
Your satellite tracking list
Your tracking list is empty




NASA's NSSDC Master Catalog

Two Line Element Set (TLE):
1 09978U 73086GH  21107.36916008 -.00000007  00000-0  28658-3 0  9991
2 09978 101.8146  83.2024 0053634 181.3198 345.9167 12.33008313 60103
Source of the keplerian elements: AFSPC